Location: Alphen
(52.1351°N, 4.6549°E)
Time: 02:08:19
(UTC+00:00)

Cosmos 1076 Rocket - Pass Details

Date: 27 January 2021
Orbit: 588 x 614 km, 82.5° (Epoch: 26 February)

Event Time Altitude Azimuth Distance (km) Brightness Sun altitude
Rises 06:42:37 0° 349° (NNW) 2,850 6.6 -7.3°
Reaches altitude 10° 06:44:51 10° 349° (NNW) 1,940 5.8 -7.0°
Maximum altitude 06:49:08 87° 259° (W) 600 3.5 -6.3°
Drops below altitude 10° 06:53:22 10° 172° (S) 1,914 6.5 -5.7°
Sets 06:55:33 0° 172° (S) 2,809 7.4 -5.4°
